Tehachapi, CA

10:57 AM PDT on July 23, 2017 (GMT -0700)
Tehachapi Municipal

Weather History for KTSP - November, 2011

Change the Weather History Date:

Friday, November 25, 2011

  Actual Average Record
Temperature  
Mean Temperature 44 °F -  
Max Temperature 53 °F 54 °F 68 °F (2012)
Min Temperature 35 °F 33 °F 24 °F (2016)
Degree Days  
Heating Degree Days 21    
Moisture  
Dew Point 39 °F    
Average Humidity 89    
Maximum Humidity 100    
Minimum Humidity 58    
Precipitation  
Precipitation 0.00 in - - ()
Sea Level Pressure  
Sea Level Pressure 30.29 in    
Wind  
Wind Speed 11 mph (NW)    
Max Wind Speed 17 mph    
Max Gust Speed 23 mph    
Visibility 5 miles    
Events Fog , Rain    
Averages and records for this station are not official NWS values.
T = Trace of Precipitation, MM = Missing Value Source: NWS Daily Summary

Daily Weather History Graph

Daily Weather History Graph

Search for Another Location

Airport or City:

Trip Planner

Search our weather history database for the weather conditions in past years. The results will help you decide how hot, cold, wet, or windy it might be!

Date:

Astronomy

Nov. 25, 2011 Rise Set
Actual Time 6:38 AM PST 4:43 PM PST
Civil Twilight 6:10 AM PST 5:10 PM PST
Nautical Twilight 5:39 AM PST 5:41 PM PST
Astronomical Twilight 5:09 AM PST 6:12 PM PST
Moon 7:09 AM PST (11/25) 5:17 PM PST (11/25)
Length of Visible Light 11h 00m
Length of Day
10h 05m
New Moon, 0% of the Moon is Illuminated
Nov 25
New Moon
Dec 2
First Quarter
Dec 10
Full
Dec 17
Last Quarter
Dec 24
New

Hourly Weather History & Observations

Time (PST) Temp. Windchill Dew Point Humidity Pressure Visibility Wind Dir Wind Speed Gust Speed Precip Events Conditions
12:15 AM 41.0 °F 34.3 °F 37.4 °F 87% 30.19 in 6.0 mi NW 11.5 mph 19.6 mph N/A   Clear
12:35 AM 41.0 °F 33.5 °F 37.4 °F 87% 30.19 in 6.0 mi NW 13.8 mph - N/A   Clear
12:55 AM 41.0 °F 34.3 °F 37.4 °F 87% 30.20 in 6.0 mi NW 11.5 mph - N/A   Partly Cloudy
1:15 AM 41.0 °F 33.1 °F 39.2 °F 93% 30.21 in 5.0 mi NW 15.0 mph - N/A   Partly Cloudy
1:35 AM 41.0 °F 33.1 °F 39.2 °F 93% 30.22 in 5.0 mi WNW 15.0 mph - N/A   Partly Cloudy
2:35 AM 41.0 °F 33.9 °F 39.2 °F 93% 30.21 in 3.0 mi NW 12.7 mph - N/A   Scattered Clouds
2:55 AM 41.0 °F 33.1 °F 39.2 °F 93% 30.20 in 3.0 mi NW 15.0 mph 19.6 mph N/A   Partly Cloudy
3:15 AM 41.0 °F 33.9 °F 39.2 °F 93% 30.20 in 2.5 mi NW 12.7 mph - N/A   Partly Cloudy
3:35 AM 41.0 °F 35.2 °F 39.2 °F 93% 30.19 in 3.0 mi NW 9.2 mph - N/A   Partly Cloudy
3:55 AM 41.0 °F 34.7 °F 39.2 °F 93% 30.18 in 5.0 mi NW 10.4 mph - N/A   Partly Cloudy
4:15 AM 41.0 °F 33.5 °F 39.2 °F 93% 30.20 in 5.0 mi WNW 13.8 mph - N/A   Partly Cloudy
4:35 AM 41.0 °F 32.8 °F 39.2 °F 93% 30.22 in 3.0 mi WNW 16.1 mph 20.7 mph N/A   Partly Cloudy
4:55 AM 41.0 °F 33.1 °F 39.2 °F 93% 30.24 in 5.0 mi WNW 15.0 mph 19.6 mph N/A   Scattered Clouds
5:15 AM 41.0 °F 33.9 °F 39.2 °F 93% 30.24 in 9.0 mi WNW 12.7 mph - N/A   Scattered Clouds
5:55 AM 42.8 °F 35.8 °F 39.2 °F 87% 30.25 in 10.0 mi WNW 13.8 mph - N/A   Partly Cloudy
6:15 AM 41.0 °F 33.1 °F 39.2 °F 93% 30.25 in 7.0 mi NW 15.0 mph - N/A   Partly Cloudy
6:35 AM 41.0 °F 33.5 °F 39.2 °F 93% 30.24 in 7.0 mi NW 13.8 mph - N/A   Clear
6:55 AM 41.0 °F 32.8 °F 39.2 °F 93% 30.26 in 5.0 mi WNW 16.1 mph 20.7 mph N/A   Partly Cloudy
7:15 AM 41.0 °F 34.7 °F 41.0 °F 100% 30.27 in 3.0 mi WNW 10.4 mph 16.1 mph N/A   Mostly Cloudy
7:35 AM 41.0 °F 34.3 °F 41.0 °F 100% 30.27 in 5.0 mi WNW 11.5 mph - N/A   Mostly Cloudy
7:55 AM 41.0 °F 34.3 °F 41.0 °F 100% 30.29 in 3.0 mi NW 11.5 mph - N/A   Scattered Clouds
8:15 AM 41.0 °F 33.9 °F 41.0 °F 100% 30.30 in 1.5 mi NW 12.7 mph - N/A   Mostly Cloudy
8:55 AM 44.6 °F 38.1 °F 39.2 °F 81% 30.31 in 9.0 mi NW 13.8 mph 18.4 mph N/A   Scattered Clouds
9:15 AM 44.6 °F 38.8 °F 39.2 °F 81% 30.32 in 7.0 mi NW 11.5 mph - N/A   Scattered Clouds
9:35 AM 44.6 °F 38.4 °F 41.0 °F 87% 30.32 in 8.0 mi NW 12.7 mph 18.4 mph N/A   Partly Cloudy
9:55 AM 46.4 °F 40.7 °F 39.2 °F 76% 30.33 in 7.0 mi NNW 12.7 mph 17.3 mph N/A   Clear
10:15 AM 48.2 °F - 39.2 °F 71% 30.34 in 9.0 mi North 9.2 mph - N/A   Partly Cloudy
10:35 AM 48.2 °F - 39.2 °F 71% 30.33 in 9.0 mi NW 10.4 mph - N/A   Partly Cloudy
10:55 AM 48.2 °F - 39.2 °F 71% 30.32 in 7.0 mi NW 9.2 mph - N/A   Clear
11:15 AM 50.0 °F - 37.4 °F 62% 30.30 in 9.0 mi NW 5.8 mph - N/A   Clear
11:35 AM 50.0 °F - 39.2 °F 66% 30.29 in 9.0 mi NW 4.6 mph - N/A   Clear
12:15 PM 51.8 °F - 39.2 °F 62% 30.27 in 9.0 mi NNW 4.6 mph - N/A   Clear
12:35 PM 53.6 °F - 39.2 °F 58% 30.27 in 8.0 mi NW 8.1 mph - N/A   Clear
1:15 PM 53.6 °F - 41.0 °F 62% 30.27 in 8.0 mi NW 15.0 mph - N/A   Clear
1:35 PM 48.2 °F - 42.8 °F 82% 30.28 in 4.0 mi NW 17.3 mph 23.0 mph N/A   Haze
1:55 PM 44.6 °F 37.4 °F 42.8 °F 93% 30.28 in 0.2 mi NW 16.1 mph 19.6 mph N/A Fog Fog
2:15 PM 44.6 °F 38.4 °F 42.8 °F 93% 30.29 in 1.0 mi NW 12.7 mph - N/A   Overcast
3:15 PM 44.6 °F 38.8 °F 41.0 °F 87% 30.31 in 3.0 mi NW 11.5 mph - N/A   Mist
3:55 PM 44.6 °F 39.2 °F 41.0 °F 87% 30.32 in 4.0 mi NNW 10.4 mph - N/A   Mist
4:15 PM 42.8 °F 38.0 °F 41.0 °F 93% 30.31 in 4.0 mi NNW 8.1 mph - N/A   Mist
4:35 PM 42.8 °F 38.6 °F 41.0 °F 93% 30.31 in 5.0 mi NNW 6.9 mph - N/A   Clear
4:55 PM 42.8 °F 38.6 °F 41.0 °F 93% 30.32 in 5.0 mi NNW 6.9 mph - N/A   Mist
5:35 PM 41.0 °F 37.1 °F 39.2 °F 93% 30.33 in 5.0 mi NW 5.8 mph - N/A   Mist
5:55 PM 41.0 °F 36.4 °F 41.0 °F 100% 30.34 in 5.0 mi NW 6.9 mph - N/A   Mist
6:15 PM 41.0 °F 37.1 °F 39.2 °F 93% 30.35 in 5.0 mi NNW 5.8 mph - N/A   Mist
6:35 PM 41.0 °F 38.0 °F 39.2 °F 93% 30.35 in 5.0 mi NNW 4.6 mph - N/A   Mist
6:55 PM 41.0 °F - 39.2 °F 93% 30.35 in 5.0 mi Calm Calm - N/A   Mist
7:15 PM 41.0 °F 38.0 °F 39.2 °F 93% 30.36 in 4.0 mi ESE 4.6 mph - N/A   Mist
7:35 PM 39.2 °F 35.9 °F 39.2 °F 100% 30.36 in 2.0 mi East 4.6 mph - N/A   Mostly Cloudy
8:15 PM 39.2 °F 33.6 °F 39.2 °F 100% 30.37 in 0.2 mi ESE 8.1 mph - N/A Fog Fog
8:35 PM 37.4 °F 31.4 °F 37.4 °F 100% 30.37 in 0.2 mi SE 8.1 mph - N/A Rain Light Rain
8:55 PM 35.6 °F 29.9 °F 35.6 °F 100% 30.38 in 2.0 mi SE 6.9 mph - N/A   Clear
9:35 PM 37.4 °F 32.1 °F 37.4 °F 100% 30.38 in 0.2 mi ESE 6.9 mph - N/A Rain Light Rain
9:55 PM 35.6 °F 30.7 °F 35.6 °F 100% 30.39 in 0.2 mi SE 5.8 mph - N/A Rain Light Rain
10:15 PM 35.6 °F - 35.6 °F 100% 30.39 in 0.2 mi Calm Calm - N/A Rain Light Rain
10:35 PM 35.6 °F - 35.6 °F 100% 30.40 in 0.2 mi Calm Calm - N/A Fog Fog
10:55 PM 32.0 °F - 32.0 °F 100% 30.40 in 0.2 mi Calm Calm - N/A Fog Fog
11:15 PM 32.0 °F - 32.0 °F 100% 30.40 in 0.2 mi Calm Calm - N/A Fog Fog
11:55 PM 30.2 °F 26.7 °F 30.2 °F 100% 30.40 in 0.2 mi SE 3.5 mph - N/A Fog Light Freezing Fog